Regional Weather Roundup
Issued by NWS

Home | Current Version | Previous Version | Graphics & Text | Print | Product List | Glossary On
Versions: 1 2 3 4 5 6 7 8 9 10 11 12 13 14 15 16 17 18 19 20 21 22 23 24 25 26 27 28 29 30 31 32 33 34 35 36 37 38 39 40 41 42 43 44 45 46 47 48 49 50
000
ASUS45 KBOI 171610
RWRID

IDAHO REGIONAL WEATHER ROUNDUP
NATIONAL WEATHER SERVICE BOISE ID
900 AM MST SUN DEC 17 2017

NOTE: "FAIR" INDICATES FEW OR NO CLOUDS BELOW 12000 FEET
WITH NO SIGNIFICANT WEATHER AND/OR OBSTRUCTIONS TO VISIBILITY

IDZ012-014-171700-
SOUTHWEST IDAHO


CITY           SKY/WX    TMP DP  RH WIND       PRES   REMARKS
BOISE          CLOUDY    24  18  77 E6        30.26R WCI  17
CALDWELL       MOCLDY    22  21  96 N5        30.31R WCI  16
MOUNTAIN HOME  PTCLDY    18  18 100 CALM      30.24F
$$

IDZ016-017-171700-
SOUTHCENTRAL IDAHO


CITY           SKY/WX    TMP DP  RH WIND       PRES   REMARKS
BURLEY         CLEAR     20  12  71 SW3       30.21S
JEROME         PTCLDY    21  15  78 SE5       30.21F WCI  15
TWIN FALLS     PTCLDY    23  15  71 S13       30.20F WCI  11
$$

IDZ019>023-171700-
SOUTHEAST IDAHO


CITY           SKY/WX    TMP DP  RH WIND       PRES   REMARKS
IDAHO FALLS    CLOUDY    23  21  92 S13       30.20R WCI  11
POCATELLO      CLOUDY    23  19  85 SW21      30.22R WCI   8
REXBURG        FOG       17  16  95 W3        30.18R VSB 1/4
$$

IDZ006-010-011-018-031-032-171700-
CENTRAL IDAHO MOUNTAINS


CITY           SKY/WX    TMP DP  RH WIND       PRES   REMARKS
MCCALL         CLOUDY    14  11  87 CALM      30.17R
HAILEY         FOG       12  10  92 CALM      30.16S VSB 1/4
STANLEY          N/A      1  -4  79 CALM      30.14F
SALMON         CLOUDY    12   7  80 CALM      30.25R
CHALLIS        CLOUDY    13   7  77 S3        30.16S
$$

IDZ002-004-006-007-026-171700-
NORTHERN IDAHO


CITY           SKY/WX    TMP DP  RH WIND       PRES   REMARKS
LEWISTON       LGT SNOW  30  26  85 NE9       30.23F FOG     WCI  22
LOWELL           N/A     28  25  88 VRB3      30.31F
COEUR D`ALENE  LGT SNOW  29  28  96 S8        30.14F FOG     WCI  21
MULLAN PASS    LGT SNOW  22  18  85 VRB7G20   29.99R FOG     WCI  13
$$



USA.gov is the U.S. government's official web portal to all federal, state and local government web resources and services.